Погода в Веневе

Россия / Тульская область     54°21′01″N   38°15′55″E
В апреле 2022 года жителям России запретили посещать сайт meteo.paraplan.net по решению Генеральной прокуратуры. Аудитория сайта уменьшилась в 10 раз. Владельцы сайта не видят смысла в поддержке погодного сервера в таких условиях. Сайт будет закрыт в октябре.
темп.,
°C
ветер,
м/с
пор.,
м/с
влажн.,
%
обл.,
%
осадки,
мм/ч
давл.,
гПа
погр.,
м
4 октября, вт
вт400:00+9ююв917848 0.1 1005851
03:00+9ююв816846 0.1 1006751
06:00+8ююв817855 0.0 1007696
09:00+10ююв9177799 0.0 10071115
12:00+13ю10177573 0.5 10081689
15:00+8юз4885100 1.3 1010545
18:00+8ююз61181100 0.2 1011640
21:00+7ююз61281100 0.6 1011810
5 октября, ср
ср500:00+7ююз6118499 0.3 1011709
03:00+7ю5991100 0.6 10111097
06:00+7ююз4891100 0.9 10111099
09:00+7юз5890100 2.1 1012965
12:00+8зюз6880100 0.4 10141140
15:00+7з4881100 0.8 1015767
18:00+6зсз5983100 0.2 1017677
21:00+6з598595 0.4 1017847
6 октября, чт
чт600:00+6з4988100 0.1 1018508
03:00+6з4893100 0.1 1018386
06:00+6з499496 0.0 1019415
09:00+7з3694100 0.3 1019274
12:00+8зюз2488100 0.1 1020351
15:00+10зюз3690100 0.1 1019569
18:00+10юз3795100 0.0 1019253
21:00+10юз4109485 0.0 1019362
7 октября, пт
пт700:00+10зюз5129368 0.0 1018372
03:00+8зюз512951 0.0 1017321
06:00+9з6139560 0.0 1018461
09:00+12зсз610790 0.0 1019764
12:00+12зсз797484 0.0 1022963
15:00+10зсз61075100 0.0 10231072
18:00+10зсз71170100 0.0 1024978
21:00+8з411830 0.0 1025316
8 октября, сб
сб800:00+7з49940 0.0 1026194
03:00+6з35940 0.0 102699
06:00+5зюз35940 0.0 102777
09:00+8зюз46835 0.0 1026228
12:00+12зюз56685 0.0 1025691
15:00+14юз56615 0.0 1023899
18:00+10ююз48798 0.0 1023144
21:00+9ююз41085100 0.0 1022230